DECAYED

STARLINK-3689, 51961 (Decayed)

Orbit data source: Space-Track

STARLINK-3689, 51961 was a payload satellite owned by SpaceX/Seattle (US) in LEO that was launched on Wed, 09 Mar 2022 UTC via an FALCON 9 launch vehicle from the Air Force Eastern Test Range (AFETR). Payload-class satellites include a variety of spacecraft equipped with specific instruments for various scientific and technological missions. These include communications satellites like Starlink; space stations such as the ISS; scientific satellites like the Hubble; Earth observation satellites from companies like Planet Labs, Umbra, and HawkEye 360; GPS; miniature CubeSats for education and research; and military/defense satellites.

Not visible in the next 10 days
Identifier
51961, 2022-025F
Orbit
Decayed
Country
Flag of USUS
Related business
Manufacturer
SpaceX/Seattle
Mission
Decayed Commercial Communications
Bus & Motor
STARLINK, Unknown motor
Mass
297 kg wet, ~275 kg dry
Launch date (UTC)
2022-03-09 (4 years ago)
Launch vehicle
FALCON 9
Launch site
Air Force Eastern Test Range (AFETR)
Object type
Payload
Rocket body
Debris
Shape & HBR
Box + 1 Pan, 10.1 m
Radar Cross Section
13.562 m², Large (>1 m²)

Expand to show TLE details & history
Last TLE update: 11 months ago

TLE from 11 months ago
0 STARLINK-3689
1 51961U 22025F   25011.28063358  .19743777  12561-4  31364-3 0  9991
2 51961  53.0319  95.2493 0002492 222.0293 241.3561 16.48279369158803
Epoch: 2025-01-11T06:44Z
TLE epoch observation values (Epoch: 2025-01-11T06:44:06.741Z)
Latitude
51.1757°
Longitude
-5.23672°
Altitude
150.671 km
Speed
7.822 km/s
True Right ascension
13h 47m 17s
True Declination
50° 59' 31"
Sunlit
Object was in full shadow at epoch
Visualization orbit readout
Latitude
Unknown
Longitude
Unknown
Altitude
Unknown
Speed
Unknown
Apparent Right ascension
Unknown
Apparent Declination
Unknown
Sunlit
N/A
Visualization observer readout
Local Sidereal Time
02:57:17
Azimuth
Unknown
Elevation
Unknown
Doppler factor
Unknown
Orbital elements
Apogee altitude
145.787 km
Perigee altitude
142.536 km
Semi-major axis
6,522.298 km
Eccentricity
0.00025
Inclination
53.0319°
RAAN
95.2493°
Arg. of periapsis
222.0293°
True anomaly
241.33104°
Mean anomaly
241.3561°
Eccentric anomaly
241.34357°
Mean motion
4.12043 °/min
Orbital period
87.37 mins
BSTAR
0.00031364
Loading maneuver chart data...
Computing Atmospheric mass density...
Loading historical data...
Loading historical data...
Loading historical data...
Loading historical data...
Loading historical data...
Loading historical data...
Loading historical data...

Documentation

Showing up to 5 results
|